Wind_Speed
76 75 74 75 77 79 82 84 83 83 82 79 77 72 73 76 76 76 75 76 78 80 82 82 83 84 84 86 85 86 86 86 88 90 95 96 98 100 102 104 108 111 113
83 83 81 81 82 83 83 84 85 87 86 85 81 77 77 75 77 78 77 78 81 83 84 85 87 89 88 89 90 91 91 92 94 95 97 99 101 104 106 108 111 115 117
85 86 87 88 89 88 87 87 87 87 87 87 85 84 83 82 83 85 86 87 88 86 87 88 89 90 92 92 94 94 96 96 97 99 99 102 104 108 108 113 117 119 120
93 94 94 95 93 92 91 91 90 92 93 94 92 89 88 87 89 92 93 92 88 87 89 90 91 91 93 94 95 96 98 100 103 102 105 108 110 110 114 119 121 118 124
100 100 99 99 99 97 98 98 97 96 96 95 94 92 90 90 91 92 93 93 94 94 94 94 94 94 95 95 96 99 103 105 105 107 108 111 114 116 119 121 122 122 128
103 103 105 104 102 101 101 101 98 99 99 99 97 96 94 93 94 97 98 100 99 100 98 96 95 96 97 98 100 103 106 108 110 111 112 115 119 121 125 123 129 129 128
109 108 108 106 103 100 100 100 98 98 99 100 99 95 97 98 100 102 102 100 97 98 97 98 99 100 102 104 105 107 110 112 115 118 121 125 127 125 129 128 130 131 133
113 111 108 106 105 104 103 103 101 100 101 103 102 102 103 100 97 94 94 95 96 97 98 101 103 105 107 108 111 113 115 118 119 124 124 124 123 124 129 130 132 133 136
108 106 106 106 108 108 106 105 107 108 107 106 104 102 101 103 102 102 103 105 106 103 103 105 104 105 109 112 115 118 120 120 120 121 121 121 124 129 131 134 135 138 140
102 102 102 102 100 97 96 99 99 100 103 105 104 107 110 109 108 113 116 114 115 117 114 114 113 111 114 112 115 117 120 122 123 124 125 126 131 132 135 137 140 141 144
107 107 109 107 107 108 106 106 108 108 110 112 115 114 116 116 119 121 120 121 124 124 122 122 121 121 121 121 124 125 126 128 128 129 131 132 135 136 137 140 142 143 145
122 122 118 117 118 119 117 114 119 121 118 119 119 122 124 124 128 126 125 124 125 124 126 124 125 123 124 123 123 126 126 127 129 131 133 134 137 138 140 143 145 147 147
125 126 125 126 127 127 126 126 127 126 126 125 124 126 128 131 129 129 128 124 119 120 123 124 126 124 124 127 128 131 132 132 134 134 135 137 139 140 141 142 143 145 148
122 123 124 125 125 126 125 125 126 127 126 126 125 124 124 122 119 118 116 117 117 116 116 116 117 118 120 124 126 128 128 129 130 132 134 136 135 135 135 134 130 129 129
111 112 113 117 117 117 117 117 115 116 115 115 113 113 114 114 113 112 111 111 111 113 113 114 114 115 116 117 119 119 121 123 123 123 123 125 126 125 125 125 126 127 129
108 109 110 112 112 112 113 113 111 112 111 111 111 110 109 110 110 111 111 110 109 111 111 111 112 114 116 116 116 115 117 119 120 120 121 123 123 123 123 124 125 127 128
105 105 106 107 108 108 109 110 110 111 111 111 110 110 109 110 111 112 111 111 110 111 111 111 112 113 113 113 114 115 116 117 118 120 120 121 123 124 124 124 124 124 124
99 99 102 104 105 105 105 106 106 107 108 107 106 108 108 110 110 111 111 112 112 112 112 111 111 111 111 112 113 115 116 118 119 120 120 121 121 122 122 121 121 121 122
94 95 98 100 102 102 102 103 105 105 108 108 106 106 108 109 111 110 110 111 112 111 111 110 111 112 113 114 115 117 117 117 117 118 119 120 120 119 119 119 119 119 119
90 91 93 96 99 100 100 102 104 103 105 106 108 107 108 109 109 111 109 109 110 110 110 111 111 111 113 114 115 116 116 117 118 118 118 118 118 118 117 117 117 117 118
88 90 92 94 96 98 99 101 101 101 101 103 104 103 105 105 105 106 105 103 103 104 106 107 109 109 110 110 111 112 113 114 115 116 116 116 116 116 116 116 117 117 116
87 87 89 90 91 93 95 97 99 100 101 102 102 102 102 102 102 102 103 104 104 104 104 104 106 106 107 108 109 110 112 113 114 115 116 117 117 117 116 115 114 113 111
85 87 87 89 90 92 93 93 94 95 97 98 98 97 98 99 99 99 100 102 102 103 104 105 106 106 107 108 110 111 112 113 114 115 115 114 113 112 111 109 107 105 102
85 86 87 88 90 91 92 92 92 93 94 95 95 95 96 98 99 101 102 103 104 105 106 108 108 109 110 110 111 111 110 109 109 108 107 107 107 106 104 101 99 97 94
86 87 88 89 90 90 89 92 92 94 95 96 96 96 97 98 99 101 102 103 104 105 106 107 107 107 107 107 106 105 104 102 102 102 101 100 100 99 97 95 92 90 87
86 86 87 87 88 89 91 92 93 93 95 96 96 96 97 97 99 99 100 101 101 101 102 102 102 102 100 99 98 99 98 97 97 96 95 94 92 91 89 87 85 83 80
Wind_Direction
283 283 282 281 283 285 287 286 287 288 289 288 289 286 282 282 282 284 286 287 288 289 289 289 290 291 291 290 290 291 292 293 292 292 292 295 297 297 299 300 302 302 303
283 282 282 282 282 281 282 284 284 285 286 287 286 284 285 283 279 279 282 285 287 287 287 288 289 289 290 291 291 290 291 292 292 293 294 295 296 296 297 299 299 301 303
278 279 280 281 281 282 282 282 283 283 283 283 283 284 285 283 281 281 282 285 288 287 285 286 287 289 290 292 292 291 290 291 291 291 292 293 294 296 298 299 302 303 301
274 275 277 277 278 279 280 281 281 282 282 282 282 283 283 282 281 281 282 285 285 286 287 286 287 288 288 290 290 290 289 290 291 293 293 294 294 296 297 300 302 299 300
273 273 274 276 277 277 278 279 279 279 280 282 283 283 282 281 280 281 283 285 286 286 288 287 287 288 288 288 289 289 289 290 291 291 292 294 295 295 298 299 298 297 298
273 274 275 276 276 277 277 278 278 278 280 280 281 282 282 281 282 284 285 285 285 285 286 286 284 286 286 286 286 288 288 288 288 289 291 292 293 294 297 295 295 298 294
273 274 274 275 274 273 274 273 274 276 276 278 279 280 280 280 281 283 282 282 283 283 284 284 284 284 284 285 285 286 288 289 290 291 292 292 294 295 295 294 295 297 296
274 274 274 274 273 273 272 273 275 275 276 276 277 279 277 277 277 276 278 283 284 285 282 281 281 282 283 284 284 285 285 286 288 289 291 292 292 291 291 294 294 295 296
274 273 273 274 271 270 271 273 275 276 274 274 275 274 275 274 274 275 277 282 283 286 284 283 284 283 283 282 283 283 285 288 288 288 290 290 289 289 292 292 293 294 294
273 273 274 274 274 274 275 276 275 274 273 273 276 276 275 273 276 276 278 280 282 282 285 284 282 282 281 281 284 284 285 285 286 287 288 287 287 289 289 290 292 294 294
271 275 275 275 273 273 271 273 275 275 276 278 277 278 279 278 280 280 279 281 281 282 282 282 282 280 281 280 281 282 283 284 285 285 286 286 287 288 289 289 290 292 293
269 274 272 274 274 275 276 274 275 277 277 275 276 277 276 278 279 279 280 280 280 280 279 279 279 279 280 279 279 280 281 282 283 284 285 285 287 287 288 290 292 293 294
271 270 270 271 272 273 274 275 275 275 274 274 275 275 276 277 277 278 278 279 278 276 275 275 275 276 276 277 278 278 280 281 281 282 283 283 285 287 289 291 291 292 292
267 268 270 270 271 272 272 272 272 272 273 274 275 274 274 275 276 275 275 276 277 277 277 277 277 277 278 277 278 278 280 281 283 284 286 286 287 288 289 291 292 294 296
268 268 268 269 269 270 270 270 270 271 271 272 273 274 275 275 276 276 277 276 276 277 278 278 278 279 279 279 280 281 282 283 283 284 285 286 288 289 291 292 292 292 293
270 269 269 269 269 269 269 270 270 270 270 271 271 271 271 272 274 274 274 275 275 275 276 277 278 279 279 280 280 281 282 283 284 285 286 287 288 288 288 289 290 292 294
270 270 269 269 268 268 268 269 269 269 269 269 270 271 271 272 274 274 274 275 276 276 277 278 277 276 277 279 281 282 283 283 283 284 284 284 286 287 289 289 291 293 293
270 270 270 270 270 270 270 271 270 270 270 271 271 272 273 274 274 275 276 276 277 278 278 279 279 280 279 280 281 282 282 282 283 284 285 287 288 288 290 292 292 292 292
268 268 268 269 270 270 270 270 271 271 272 273 273 273 273 274 276 276 277 277 279 279 280 280 281 282 282 282 283 284 284 285 286 285 286 288 289 289 290 291 292 292 293
269 269 269 269 269 269 269 269 271 272 272 273 274 274 275 275 276 277 278 278 278 280 280 281 281 281 281 281 282 283 284 285 285 286 287 288 288 288 289 289 291 292 293
271 271 271 271 270 270 271 271 272 272 272 272 274 275 275 276 276 276 277 278 279 278 278 280 280 281 281 281 282 282 283 283 284 285 286 287 287 288 289 291 292 294 295
272 273 272 272 272 272 272 272 273 274 274 274 275 276 276 277 277 278 278 278 279 279 278 278 279 280 281 281 282 282 282 283 284 285 286 288 289 290 290 291 292 294 294
271 272 272 272 273 273 273 274 274 275 276 276 277 278 278 278 278 279 279 279 279 280 281 281 281 282 281 281 282 282 283 284 285 286 287 288 288 289 290 291 292 293 294
272 271 271 272 272 273 274 275 276 276 275 276 276 276 276 276 276 277 278 280 281 281 280 281 282 283 283 283 284 285 286 286 287 288 289 288 288 290 292 293 293 294 294
273 273 273 273 273 274 275 275 275 276 276 277 277 278 278 278 279 279 279 279 281 282 282 282 284 285 285 285 286 287 288 288 288 288 289 291 290 291 291 292 292 292 293
273 273 274 275 275 275 276 276 277 277 278 279 280 280 281 281 281 281 281 281 282 283 283 283 284 286 287 287 287 287 287 289 289 289 290 289 290 290 291 291 292 292 292
Height
10656 10656 10655 10651 10646 10642 10636 10632 10631 10629 10626 10624 10623 10621 10616 10611 10608 10605 10601 10596 10592 10589 10584 10579 10573 10566 10561 10555 10550 10543 10536 10530 10523 10516 10506 10499 10492 10483 10474 10464 10454 10443 10432
10637 10635 10630 10627 10625 10622 10617 10616 10614 10611 10607 10604 10601 10600 10596 10593 10589 10586 10581 10577 10572 10569 10564 10560 10553 10546 10541 10535 10530 10523 10515 10510 10501 10493 10485 10479 10471 10462 10453 10442 10432 10420 10409
10614 10612 10610 10606 10602 10598 10598 10596 10593 10590 10587 10584 10582 10580 10576 10572 10569 10565 10561 10557 10552 10548 10544 10538 10534 10525 10519 10512 10506 10501 10492 10487 10480 10472 10465 10456 10448 10438 10428 10418 10407 10396 10383
10594 10591 10587 10582 10581 10579 10576 10573 10570 10566 10563 10559 10561 10559 10554 10551 10546 10541 10538 10536 10531 10526 10521 10516 10512 10505 10499 10492 10485 10478 10469 10461 10455 10449 10440 10430 10421 10413 10403 10393 10383 10372 10358
10573 10571 10567 10562 10560 10559 10555 10551 10549 10543 10539 10537 10534 10532 10530 10527 10521 10517 10514 10511 10506 10502 10497 10492 10488 10482 10475 10468 10460 10453 10444 10436 10431 10424 10415 10405 10396 10386 10378 10368 10357 10347 10336
10546 10545 10541 10541 10537 10532 10530 10527 10523 10520 10516 10515 10512 10508 10503 10500 10494 10491 10488 10484 10480 10475 10472 10469 10464 10458 10451 10443 10436 10429 10422 10413 10406 10400 10392 10382 10372 10363 10355 10342 10333 10319 10311
10513 10512 10512 10512 10512 10508 10507 10503 10499 10496 10493 10489 10486 10483 10479 10474 10469 10465 10460 10456 10452 10449 10446 10442 10438 10433 10427 10420 10413 10405 10396 10388 10379 10370 10360 10350 10344 10334 10320 10310 10300 10292 10281
10479 10481 10481 10482 10483 10480 10478 10475 10473 10470 10466 10462 10459 10458 10453 10447 10443 10439 10435 10430 10425 10423 10419 10415 10411 10406 10399 10394 10387 10379 10372 10363 10354 10344 10335 10328 10318 10304 10294 10284 10273 10264 10253
10449 10447 10446 10449 10449 10447 10446 10445 10444 10443 10440 10437 10433 10429 10425 10420 10416 10411 10408 10401 10396 10394 10391 10388 10383 10378 10372 10366 10360 10353 10343 10333 10324 10316 10309 10301 10289 10276 10268 10257 10245 10235 10225
10422 10421 10420 10420 10420 10418 10416 10414 10413 10412 10410 10408 10404 10401 10397 10392 10387 10383 10377 10372 10369 10362 10361 10359 10355 10351 10346 10340 10334 10325 10315 10306 10297 10290 10282 10270 10257 10251 10238 10228 10217 10207 10195
10394 10393 10391 10390 10388 10387 10386 10384 10382 10379 10378 10375 10372 10368 10364 10359 10355 10350 10348 10341 10337 10333 10328 10324 10319 10317 10313 10308 10302 10293 10285 10276 10269 10262 10253 10239 10228 10220 10209 10199 10190 10177 10166
10364 10360 10360 10358 10354 10352 10351 10350 10348 10346 10345 10342 10339 10336 10332 10326 10322 10317 10316 10310 10306 10299 10294 10289 10285 10282 10278 10272 10266 10257 10250 10244 10237 10229 10221 10209 10198 10190 10177 10168 10158 10146 10136
10326 10324 10324 10322 10318 10318 10317 10315 10312 10311 10308 10305 10303 10302 10299 10292 10288 10285 10283 10278 10271 10265 10258 10253 10250 10247 10244 10237 10231 10222 10215 10210 10203 10196 10189 10180 10169 10158 10148 10138 10127 10115 10106
10288 10287 10285 10283 10282 10281 10280 10278 10277 10274 10272 10269 10267 10263 10260 10256 10253 10249 10245 10241 10237 10232 10229 10224 10219 10214 10209 10203 10196 10189 10183 10175 10170 10164 10157 10149 10139 10129 10120 10107 10096 10086 10074
10251 10250 10249 10246 10246 10245 10243 10241 10241 10239 10237 10234 10232 10230 10226 10222 10218 10216 10213 10209 10205 10200 10196 10191 10187 10182 10176 10171 10164 10158 10151 10142 10138 10133 10127 10118 10108 10098 10088 10078 10067 10058 10048
10214 10215 10213 10211 10211 10210 10206 10205 10205 10202 10202 10201 10199 10198 10195 10191 10188 10184 10181 10179 10176 10171 10166 10160 10155 10151 10145 10139 10133 10127 10120 10112 10104 10098 10092 10085 10078 10070 10062 10052 10041 10029 10018
10175 10177 10176 10175 10174 10175 10174 10171 10170 10169 10167 10165 10165 10162 10160 10157 10154 10150 10148 10145 10143 10138 10133 10128 10125 10120 10115 10108 10100 10094 10088 10082 10074 10066 10060 10054 10045 10037 10028 10019 10010 10000 9987
10143 10142 10140 10137 10137 10137 10137 10137 10136 10135 10133 10134 10134 10130 10127 10124 10121 10117 10114 10111 10109 10106 10101 10097 10092 10087 10081 10075 10069 10063 10057 10049 10041 10034 10026 10019 10011 10002 9993 9985 9976 9965 9954
10111 10109 10107 10105 10103 10103 10103 10102 10099 10097 10096 10096 10098 10096 10092 10088 10084 10083 10080 10077 10073 10069 10066 10063 10057 10052 10046 10040 10034 10027 10020 10013 10007 9999 9991 9985 9978 9970 9961 9953 9943 9934 9924
10081 10081 10079 10076 10073 10072 10072 10070 10068 10069 10067 10065 10062 10062 10060 10057 10053 10048 10048 10044 10041 10037 10033 10028 10023 10019 10014 10007 10002 9995 9989 9981 9974 9967 9960 9953 9946 9938 9932 9924 9914 9906 9896
10053 10051 10049 10048 10045 10043 10042 10040 10040 10039 10037 10034 10033 10032 10029 10027 10024 10020 10017 10014 10010 10005 10000 9996 9991 9986 9981 9976 9971 9964 9958 9951 9943 9937 9930 9922 9914 9906 9901 9893 9884 9876 9866
10025 10023 10021 10018 10016 10014 10013 10011 10009 10007 10005 10004 10003 10001 9999 9996 9993 9988 9984 9980 9976 9972 9969 9965 9960 9955 9951 9945 9939 9933 9926 9919 9913 9905 9897 9889 9880 9872 9867 9860 9853 9846 9838
9999 9995 9993 9991 9989 9986 9985 9984 9982 9979 9977 9974 9973 9970 9966 9963 9960 9957 9953 9949 9945 9941 9936 9932 9927 9922 9918 9912 9906 9900 9894 9888 9880 9872 9865 9857 9848 9841 9834 9829 9824 9817 9807
9971 9969 9967 9964 9962 9959 9958 9957 9955 9952 9949 9946 9944 9942 9938 9933 9930 9925 9922 9918 9914 9909 9904 9898 9894 9889 9883 9877 9872 9866 9861 9854 9846 9839 9831 9822 9813 9807 9803 9796 9792 9786 9779
9941 9940 9938 9936 9935 9934 9933 9928 9926 9922 9919 9916 9914 9911 9908 9904 9900 9895 9890 9885 9880 9876 9870 9865 9861 9856 9849 9842 9836 9831 9825 9818 9810 9803 9796 9790 9783 9778 9773 9767 9762 9756 9751
9912 9911 9910 9910 9908 9906 9903 9899 9896 9893 9890 9886 9883 9880 9876 9872 9867 9862 9857 9852 9848 9843 9836 9831 9825 9821 9817 9811 9804 9796 9790 9786 9781 9774 9767 9760 9754 9750 9745 9739 9734 9728 9725